     2.10           OBSERVATION DATA    G (GPS)             RINEX VERSION / TYPE
teqc 2002Apr3 Duncan Agnew 20050511 23:58:19UTC             PGM / RUN BY / DATE
OSX 5.3|G3|cc|OSX 5.3+|G3+                                  COMMENT
BIT 2 OF LLI FLAGS DATA COLLECTED UNDER A/S CONDITION       COMMENT
IVPN 02                                                     MARKER NAME
1722                                                        MARKER NUMBER
Dave Beltran Nolte Engineering                              OBSERVER / AGENCY
220331722 TRIMBLE 5700 NP 2.01 / SP 2.01                    REC # / TYPE / VERS
12582749 TRM41249.00                                        ANT # / TYPE
 -2321110.0000 -4847569.0000  3422681.0000                  APPROX POSITION XYZ
        2.0000        0.0000        0.0000                  ANTENNA: DELTA H/E/N
     1     1                                                WAVELENGTH FACT L1/2
     7    C1    L1    L2    P1    P2    S1    S2            # / TYPES OF OBSERV
SNR is mapped to RINEX snr flag value [1-9]                 COMMENT
L1: 3 -> 1; 8 -> 5; 40 -> 9                                 COMMENT
L2: 1 -> 1; 5 -> 5; 60 -> 9                                 COMMENT
  2004     6    29    21    54    0.0000000     GPS         TIME OF FIRST OBS
                                                            END OF HEADER
 04  6 29 21 54  0.0000000  0  5G11G14G16G20G25
  21925601.4384     -57795.57059    -42561.78157                  21925600.5124
        48.5004         34.7504
  23859790.6884      -4574.18459     -7652.69957                  23859791.1414
        42.7504         26.0004
  23613119.1254    -273873.73059   -191853.75856                  23613120.0984
        43.2504         22.2504
  22008313.4064    -269965.52759   -185502.71957                  22008311.8164
        47.2504         34.0004
  20878576.4534     -44646.62159    -33913.64858                  20878575.1454
        52.0004         40.2504
 04  6 29 21 54 10.0000000  0  5G11G14G16G20G25
  21923501.0314     -68831.76649    -51161.42647                  21923499.9804
        48.0004         34.2504
  23859568.1414      -5744.46949     -8564.63347                  23859568.0944
        40.7504         26.7504
  23602813.2194    -328033.20349   -234055.91446                  23602813.9844
        43.0004         25.0004
  21998577.8364    -321125.84849   -225367.89547                  21998575.9774
        47.7504         34.0004
  20876944.6644     -53222.85949    -40596.44148                  20876943.3324
        51.2504         39.7504
 04  6 29 21 54 20.0000000  0  5G11G14G16G20G25
  21921409.2894     -79826.10549    -59728.46547                  21921407.7934
        47.7504         35.5004
  23859344.4384      -6921.48449     -9481.81247                  23859344.5164
        41.2504         26.0004
  23592506.6094    -382193.01249   -276258.34046                  23592507.0044
        43.0004         22.7504
  21988845.0234    -372272.54349   -265222.47347                  21988843.5704
        47.0004         34.5004
  20875318.9304     -61763.93749    -47251.84848                  20875318.0124
        51.2504         40.0004
 04  6 29 21 54 30.0000000  0  5G11G14G16G20G25
  21919326.3984     -90770.23049    -68256.36347                  21919325.5314
        48.2504         34.7504
  23859120.6024      -8096.84049    -10397.69147                  23859120.9064
        42.2504         26.2504
  23582201.4694    -436344.58649   -318454.32846                  23582202.5864
        43.0004         22.7504
  21979116.3134    -423397.18449   -305059.84047                  21979114.9344
        47.7504         34.5004
  20873702.1094     -70261.44949    -53873.28548                  20873700.8914
        51.0004         40.2504
 04  6 29 21 54 40.0000000  0  5G11G14G16G20G25
  21917254.9144    -101656.92649    -76739.51647                  21917253.6684
        47.0004         34.5004
  23858898.4304      -9263.21949    -11306.57446                  23858898.3404
        40.0004         24.5004
  23571899.6484    -490480.59449   -360638.15646                  23571900.6644
        43.0004         22.7504
  21969393.2424    -474492.32049   -344874.21947                  21969391.6884
        46.5004         34.0004
  20872094.8834     -78708.19149    -60455.16848                  20872093.4694
        50.5004         39.7504
 04  6 29 21 54 50.0000000  0  5G11G14G16G20G25
  21915194.2194    -112485.80949    -85177.62147                  21915193.2154
        47.0004         34.0004
  23858678.0474     -10420.19949    -12208.13346                  23858678.4574
        40.7504         25.0004
  23561600.8914    -544600.43749   -402809.41446                  23561602.3954
        42.5004         22.5004
  21959675.8754    -525557.49249   -384665.25047                  21959674.3164
        46.5004         33.7504
  20870496.8984     -87103.84849    -66997.24248                  20870495.6094
        50.5004         39.5004
 04  6 29 21 55  0.0000000  0  5G11G14G16G20G25
  21913144.6564    -123257.54749    -93571.18447                  21913143.7504
        47.2504         33.7504
  23858459.7114     -11568.24249    -13102.73446                  23858460.4144
        39.5004         23.0004
  23551305.6724    -598704.53549   -444968.39146                  23551307.1954
        44.0004         24.7504
  21949963.9144    -576593.09849   -424433.24647                  21949962.7464
        45.5004         34.2504
  20868908.8444     -95449.02749    -73499.97747                  20868907.8954
        50.5004         39.2504
 04  6 29 21 55 10.0000000  0  5G11G14G16G20G25
  21911106.3364    -133968.26649   -101917.22347                  21911105.4574
        47.2504         34.5004
  23858243.8914     -12703.48049    -13987.37946                  23858243.9884
        39.2504         24.0004
  23541013.8594    -652788.86749   -487111.99646                  23541014.6024
        43.7504         25.5004
  21940258.6174    -627595.23049   -464175.15647                  21940257.1254
        46.0004         34.2504
  20867331.4064    -103739.83249    -79960.35547                  20867330.0824
        49.7504         39.0004
 04  6 29 21 55 20.0000000  0  5G11G14G16G20G25
  21909079.2194    -144619.41449   -110216.83247                  21909078.2304
        47.2504         34.7504
  23858029.4304     -13827.19549    -14863.01246                  23858030.5314
        39.0004         22.5004
  23530725.2974    -706854.68749   -529241.16847                  23530726.4454
        43.0004         26.5004
  21930559.5864    -678565.07049   -503891.91047                  21930558.1844
        45.5004         34.0004
  20865763.5474    -111977.69149    -86379.47348                  20865762.3284
        50.0004         39.5004
 04  6 29 21 55 30.0000000  0  5G11G14G16G20G25
  21907064.1414    -155209.71949   -118469.03947                  21907063.0864
        48.2504         35.2504
  23857818.4774     -14938.23849    -15728.79346                  23857818.4104
        39.7504         23.2504
  23520440.4304    -760900.50849   -571354.73446                  23520441.8094
        43.5004         25.5004
  21920866.5004    -729501.26649   -543582.44947                  21920865.6604
        45.5004         34.2504
  20864206.3054    -120161.41449    -92756.41048                  20864204.9384
        50.5004         39.7504
 04  6 29 21 55 40.0000000  0  5G11G14G16G20G25
  21905060.5164    -165738.43049   -126673.24647                  21905059.8634
        48.0004         35.5004
  23857609.2664     -16035.62549    -16583.93046                  23857609.4454
        38.7504         22.5004
  23510160.1024    -814925.42649   -613452.03547                  23510161.1604
        43.2504         26.2504
  21911180.2584    -780402.90649   -583246.05947                  21911178.9454
        45.0004         34.7504
  20862659.6024    -128290.22749    -99090.56248                  20862658.2814
        50.7504         40.0004
 04  6 29 21 55 50.0000000  0  5G11G14G16G20G25
  21903068.5704    -176206.62949   -134830.29347                  21903067.4104
        47.5004         35.5004
  23857403.7894     -17120.42649    -17429.26646                  23857403.1454
        39.0004         22.5004
  23499882.5784    -868930.27049   -655533.66047                  23499883.8484
        43.7504         26.5004
  21901500.2504    -831270.80549   -622883.35947                  21901499.5474
        45.7504         35.0004
  20861122.9064    -136365.14549   -105382.70748                  20861121.4494
        51.0004         39.5004
 04  6 29 21 56  0.0000000  0  5G11G14G16G20G25
  21901087.6724    -186616.93449   -142942.23447                  21901086.6214
        48.2504         35.2504
  23857198.6954     -18195.22349    -18266.78946                  23857198.2854
        40.5004         21.7504
  23489609.8984    -922917.59449   -697601.66046                  23489610.4804
        44.0004         25.0004
  21891826.6884    -882107.53149   -662496.38747                  21891825.6994
        46.2504         33.7504
  20859596.2034    -144388.96149   -111635.02747                  20859594.4614
        51.2504         39.0004
 04  6 29 21 56 10.0000000  0  5G11G14G16G20G25
  21899118.0004    -196967.96549   -151007.97747                  21899117.1254
        48.7504         34.5004
  23856996.0394     -19258.48449    -19095.30546                  23856996.1564
        39.5004         21.5004
  23479339.8204    -976885.82049   -739654.77746                  23479341.2664
        44.7504         25.5004
  21882158.9534    -932911.52349   -702083.89547                  21882157.7894
        45.0004         33.7504
  20858079.2114    -152360.17249   -117846.37147                  20858077.7424
        51.0004         39.0004
 04  6 29 21 56 20.0000000  0  5G11G14G16G20G25
  21897159.4924    -207259.57449   -159027.43447                  21897158.1914
        49.0004         35.2504
  23856796.3444     -20309.93749    -19914.65246                  23856795.7274
        39.5004         21.2504
  23469073.9924   -1030834.50849   -781692.67647                  23469074.8284
        44.2504         26.0004
  21872497.3134    -983682.47349   -741645.66047                  21872496.4224
        46.0004         34.2504
  20856572.1174    -160278.62549   -124016.60948                  20856570.9964
        51.5004         39.7504
 04  6 29 21 56 30.0000000  0  5G11G14G16G20G25
  21895212.8134    -217490.87549   -166999.89547                  21895211.3594
        48.0004         35.5004
  23856598.4844     -21348.73049    -20724.12146                  23856597.7114
        38.5004         20.5004
  23458811.7274   -1084762.64549   -823714.56247                  23458812.4804
        44.0004         26.7504
  21862842.4694   -1034419.34049   -781180.87547                  21862841.2304
        45.7504         34.0004
  20855075.8834    -168143.53149   -130145.10948                  20855074.4224
        51.2504         40.0004
 04  6 29 21 56 40.0000000  0  5G11G14G16G20G25
  21893276.8914    -227663.17649   -174926.38347                  21893275.6334
        49.0004         36.0004
  23856402.6564     -22376.07849    -21524.70346                  23856402.1604
        38.5004         21.0004
  23448553.5634   -1138671.31249   -865721.28947                  23448553.6684
        44.5004         26.7504
  21853193.9304   -1085123.28949   -820690.44547                  21853192.6334
        47.0004         34.7504
  20853589.2274    -175956.12149   -136232.85247                  20853587.7734
        50.5004         39.2504
 04  6 29 21 56 50.0000000  0  5G11G14G16G20G25
  21891352.5394    -237775.79749   -182806.36347                  21891351.7194
        49.2504         35.5004
  23856209.4694     -23391.11749    -22315.66446                  23856209.1334
        39.0004         19.2504
  23438298.8134   -1192559.73049   -907712.22747                  23438299.2544
        45.0004         26.5004
  21843551.3834   -1135793.49249   -860173.70747                  21843550.6174
        46.5004         34.7504
  20852112.3754    -183715.66849   -142279.26248                  20852111.0984
        50.0004         39.5004
 04  6 29 21 57  0.0000000  0  5G11G14G16G20G25
  21889439.0944    -247830.80549   -190641.44147                  21889438.2664
        48.7504         35.2504
  23856018.9224     -24395.93049    -23098.64546                  23856018.3134
        38.5004         19.5004
  23428047.2814   -1246429.71949   -949688.78947                  23428047.7114
        44.5004         26.0004
  21833915.6414   -1186431.80549   -899632.12147                  21833914.3634
        45.7504         34.5004
  20850645.4454    -191424.27349   -148285.96947                  20850644.1804
        49.5004         39.2504
 04  6 29 21 57  9.9990000  0  5G11G14G16G20G25
  21887537.2374    -257826.10249   -198429.99647                  21887536.0854
        50.2504         34.5004
  23855829.5504     -25389.23049    -23872.69946                  23855829.3664
        39.5004         19.7504
  23417801.1284   -1300274.57849   -991645.77347                  23417801.6124
        44.5004         26.2504
  21824286.5264   -1237031.92249   -939060.77047                  21824285.3314
        47.0004         33.5004
  20849188.7534    -199080.06249   -154251.52348                  20849187.1634
        49.5004         39.5004
 04  6 29 21 57 19.9990000  0  5G11G14G16G20G25
  21885645.7144    -267764.89849   -206174.52347                  21885644.7454
        49.2504         35.0004
  23855642.9094     -26372.38749    -24638.79746                  23855642.0464
        40.5004         19.5004
  23407557.1364   -1354106.16049  -1033592.42646                  23407557.6324
        44.5004         25.5004
  21814662.5974   -1287605.05949   -978468.39547                  21814661.6834
        47.2504         32.5004
  20847741.3154    -206685.81249   -160178.07848                  20847739.7374
        50.5004         39.7504
 04  6 29 21 57 29.9990000  0  5G11G14G16G20G25
  21883765.5034    -277645.53949   -213873.74647                  21883764.5114
        49.0004         34.5004
  23855457.9174     -27344.52749    -25396.31246                  23855456.9254
        39.5004         20.0004
  23397316.9254   -1407918.15649  -1075523.81247                  23397317.1164
        44.5004         26.0004
  21805045.3474   -1338145.27749  -1017850.38747                  21805043.7574
        47.2504         33.5004
  20846303.7144    -214240.15249   -166064.59447                  20846302.3904
        50.0004         39.2504
 04  6 29 21 57 39.9990000  0  5G11G14G16G20G25
  21881896.6594    -287466.99249   -221526.83647                  21881895.9604
        49.5004         35.2504
  23855275.5584     -28304.45749    -26144.32046                  23855273.8904
        40.7504         20.0004
  23387080.7304   -1461709.32049  -1117438.95347                  23387081.0654
        44.5004         26.7504
  21795434.2694   -1388651.42649  -1057205.81647                  21795432.8394
        47.7504         33.2504
  20844876.2144    -221741.91449   -171910.12548                  20844874.8944
        50.7504         39.5004
 04  6 29 21 57 49.9990000  0  5G11G14G16G20G25
  21880038.7924    -297230.39149   -229134.70347                  21880037.6084
        49.0004         35.5004
  23855094.1904     -29253.38349    -26883.75846                  23855092.7374
        40.7504         19.7504
  23376848.2534   -1515480.71549  -1159338.70347                  23376848.6594
        44.0004         26.5004
  21785829.6594   -1439124.45749  -1096535.45347                  21785828.1444
        47.7504         33.2504
  20843458.4954    -229192.29749   -177715.62547                  20843457.1014
        50.5004         39.2504
 04  6 29 21 57 59.9990000  0  5G11G14G16G20G25
  21878191.8704    -306934.75449   -236696.55947                  21878191.3154
        49.5004         35.5004
  23854916.4404     -30190.11749    -27613.71946                  23854914.3044
        40.7504         19.0004
  23366619.7694   -1569231.12949  -1201222.09846                  23366620.0814
        42.7504         25.2504
  21776231.5344   -1489563.19149  -1135838.35547                  21776230.1124
        48.0004         34.0004
  20842050.7534    -236590.32449   -183480.33248                  20842049.3474
        50.2504         40.5004
 04  6 29 21 58  9.9990000  0  5G11G14G16G20G25
  21876357.0894    -316578.20749   -244210.94947                  21876356.2844
        49.7504         35.7504
  23854741.0894     -31112.91049    -28332.77346                  23854738.6984
        41.5004         19.2504
  23356395.3624   -1622958.50449  -1243087.54347                  23356395.4644
        42.7504         26.7504
  21766640.1054   -1539965.64149  -1175112.97347                  21766638.2724
        47.7504         34.0004
  20840653.4174    -243934.20349   -189202.84048                  20840651.7334
        51.2504         40.5004
 04  6 29 21 58 19.9990000  0  5G11G14G16G20G25
  21874533.7924    -326157.57849   -251675.39847                  21874533.4134
        49.5004         34.2504
  23854568.4484     -32018.23849    -29038.21146                  23854566.4054
        42.0004         19.2504
  23346176.9874   -1676659.26649  -1284932.23846                  23346176.6904
        42.5004         24.0004
  21757056.2454   -1590328.32449  -1214356.61347                  21757054.8904
        48.2504         33.0004
  20839266.8944    -251220.48849   -194880.45748                  20839265.5654
        51.5004         39.5004
 04  6 29 21 58 29.9990000  0  5G11G14G16G20G25
  21872722.7374    -335674.34849   -259091.08247                  21872722.2374
        49.2504         34.5004
  23854399.3474     -32907.75449    -29731.32446                  23854397.5264
        42.2504         19.7504
  23335962.6364   -1730335.03949  -1326757.46946                  23335962.2844
        42.5004         22.7504
  21747480.0424   -1640652.80949  -1253570.48447                  21747478.5034
        47.7504         33.7504
  20837891.0504    -258450.89149   -200514.54748                  20837889.2694
        51.2504         39.5004
 04  6 29 21 58 39.9990000  0  5G11G14G16G20G25
  21870924.0194    -345128.96549   -266458.33247                  21870922.7614
        48.5004         33.5004
  23854233.0504     -33781.81249    -30412.41846                  23854231.0934
        42.5004         20.7504
  23325753.4484   -1783986.03149  -1368563.40246                  23325752.0034
        42.0004         23.0004
  21737910.8474   -1690939.30549  -1292754.76647                  21737909.0734
        47.7504         32.2504
  20836525.5894    -265625.89549   -206105.46147                  20836523.7804
        50.0004         38.5004
 04  6 29 21 58 49.9990000  0  5G11G14G16G20G25
  21869137.1444    -354517.29749   -273773.93047                  21869136.2574
        49.5004         34.2504
  23854070.4564     -34636.07049    -31078.08246                  23854069.1594
        43.2504         21.5004
  23315548.9724   -1837607.80549  -1410346.55946                  23315548.2064
        42.5004         24.5004
  21728349.6904   -1741183.53949  -1331906.10947                  21728347.7574
        48.2504         34.0004
  20835171.6514    -272741.26649   -211649.91448                  20835170.0734
        50.7504         39.7504
 04  6 29 21 58 59.9990000  0  5G11G14G16G20G25
  21867363.0194    -363840.40649   -281038.71147                  21867362.4174
        49.5004         34.0004
  23853911.6124     -35471.58249    -31729.14146                  23853910.7654
        42.5004         20.7504
  23305349.9094   -1891201.34049  -1452107.71546                  23305349.5854
        41.5004         22.5004
  21718796.3004   -1791386.37549  -1371025.19547                  21718794.7574
        48.5004         34.2504
  20833828.5114    -279798.18449   -217148.82447                  20833827.1674
        50.7504         38.5004
 04  6 29 21 59  9.9990000  0  5G11G14G16G20G25
  21865601.3554    -373098.64549   -288252.93447                  21865600.2804
        49.5004         34.5004
  23853756.4174     -36288.59449    -32365.78546                  23853755.2844
        43.0004         21.5004
  23295157.1444   -1944766.69549  -1493846.90646                  23295156.5894
        41.2504         23.7504
  21709251.1054   -1841547.97749  -1410112.14847                  21709249.0584
        47.5004         34.7504
  20832496.8394    -286796.94149   -222602.40647                  20832495.3784
        51.0004         39.0004
 04  6 29 21 59 19.9990000  0  5G11G14G16G20G25
  21863851.6284    -382291.88749   -295416.52047                  21863851.2334
        49.2504         33.5004
  23853604.3084     -37086.82049    -32987.79346                  23853604.1364
        43.7504         22.0004
  23284969.3624   -1998303.46949  -1535563.82446                  23284968.5974
        42.0004         24.0004
  21699713.5734   -1891668.08249  -1449166.77047                  21699711.6944
        49.0004         34.5004
  20831176.1594    -293737.39849   -228010.56648                  20831174.5854
        51.0004         39.5004
 04  6 29 21 59 29.9990000  0  5G11G14G16G20G25
  21862114.4094    -391421.20349   -302530.27747                  21862114.1874
        48.0004         33.0004
  23853455.3864     -37867.33249    -33595.99246                  23853455.3314
        43.5004         22.7504
  23274786.6054   -2051812.72749  -1577259.32846                  23274786.0034
        42.0004         23.5004
  21690183.7064   -1941747.61349  -1488189.77347                  21690182.2724
        48.5004         34.2504
  20829866.2924    -300620.68449   -233374.16047                  20829864.9254
        51.2504         38.7504
 04  6 29 21 59 39.9990000  0  5G11G14G16G20G25
  21860389.5194    -400485.93749   -309593.71947                  21860388.7844
        49.5004         32.7504
  23853311.1754     -38629.42249    -34189.84046                  23853310.2144
        44.0004         23.5004
  23264609.6124   -2105293.53949  -1618932.62146                  23264608.8314
        42.2504         23.5004
  21680661.5424   -1991785.68049  -1527180.45747                  21680659.6474
        48.7504         34.2504
  20828567.2844    -307446.09049   -238692.65647                  20828565.9724
        50.7504         39.2504
 04  6 29 21 59 49.9990000  0  5G11G14G16G20G25
  21858677.0734    -409485.82449   -316606.64847                  21858676.1754
        48.7504         33.5004
  23853169.1284     -39372.73449    -34769.06246                  23853169.0974
        43.5004         22.5004
  23254438.0344   -2158745.40649  -1660583.39146                  23254437.9874
        42.7504         22.5004
  21671147.4644   -2041781.88749  -1566138.53947                  21671145.7844
        48.5004         33.5004
  20827279.4954    -314213.35249   -243965.86748                  20827278.4644
        51.5004         39.5004
 04  6 29 21 59 59.9990000  0  5G11G14G16G20G25
  21856976.9954    -418420.28549   -323568.56647                  21856976.2064
        48.5004         33.2504
  23853031.5974     -40096.57049    -35333.10946                  23853031.5654
        43.0004         24.5004
  23244272.0974   -2212167.61749  -1702211.03946                  23244271.9834
        43.0004         22.7504
  21661641.6204   -2091735.50849  -1605063.42647                  21661639.9994
        48.5004         34.5004
  20826002.9404    -320921.88749   -249193.29748                  20826001.6084
        51.2504         39.5004
 04  6 29 22  0  9.9990000  0  5G11G14G16G20G25
  21855289.6904    -427287.08649   -330477.78947                  21855288.8824
        48.0004         34.0004
  23852897.8624     -40798.66849    -35880.22746                  23852898.0194
        43.5004         25.0004
  23234112.8004   -2265557.68749  -1743813.65646                  23234112.4524
        43.2504         22.7504
  21652144.4094   -2141644.10249  -1643953.23847                  21652142.5974
        48.2504         34.5004
  20824738.4564    -327569.42649   -254373.20748                  20824736.4874
        50.2504         39.5004
 04  6 29 22  0 19.9990000  0  5G11G14G16G20G25
  21853614.6674    -436086.34849   -337334.37147                  21853614.5774
        48.5004         34.0004
  23852768.1594     -41479.10249    -36410.46146                  23852767.8394
        42.7504         25.5004
  23223958.4404   -2318915.58249  -1785391.21146                  23223958.1834
        42.2504         22.5004
  21642655.4174   -2191507.73849  -1682808.00847                  21642654.1054
        48.2504         35.2504
  20823485.0264    -334156.10249   -259505.69548                  20823483.0154
        51.0004         39.5004
 04  6 29 22  0 29.9990000  0  5G11G14G16G20G25
  21851954.0114    -444814.75049   -344135.73047                  21851953.4134
        47.7504         33.2504
  23852643.6124     -42134.38749    -36921.08646                  23852642.9404
        43.0004         24.5004
  23213811.8554   -2372237.91849  -1826941.03146                  23213811.3824
        43.5004         22.0004
  21633176.1754   -2241322.89549  -1721625.00447                  21633174.4644
        48.0004         34.5004
  20822243.1594    -340678.68049   -264588.22347                  20822241.9564
        50.7504         39.2504
 04  6 29 22  0 39.9990000  0  5G11G14G16G20G25
  21850306.4484    -453473.34449   -350882.70747                  21850305.5974
        49.0004         32.7504
  23852523.5584     -42765.51249    -37412.88346                  23852523.2374
        42.5004         24.5004
  23203671.2064   -2425525.47349  -1868463.76646                  23203670.9604
        43.0004         22.5004
  21623705.4484   -2291090.48449  -1760404.93047                  21623704.6014
        48.5004         34.7504
  20821014.3704    -347138.26649   -269621.66447                  20821013.0584
        51.2504         39.0004
 04  6 29 22  0 49.9990000  0  5G11G14G16G20G25
  21848672.2534    -462061.96149   -357575.14147                  21848671.2454
        48.7504         33.2504
  23852407.8314     -43372.14849    -37885.59046                  23852408.2804
        42.5004         24.5004
  23193537.9564   -2478777.73849  -1909959.01646                  23193537.6084
        43.0004         23.0004
  21614244.4014   -2340810.00449  -1799147.39847                  21614243.1554
        49.0004         34.5004
  20819797.2224    -353534.43049   -274605.69147                  20819795.8004
        50.7504         38.7504
 04  6 29 22  0 59.9990000  0  5G11G14G16G20G25
  21847051.2064    -470580.94149   -364213.32447                  21847049.7724
        48.2504         33.0004
  23852297.5894     -43954.60249    -38339.48846                  23852297.3744
        42.2504         23.5004
  23183411.1594   -2531994.92649  -1951426.91446                  23183410.5504
        43.2504         24.2504
  21604792.2844   -2390481.75049  -1837852.65647                  21604791.0654
        48.5004         34.7504
  20818592.0114    -359867.57449   -279540.62147                  20818590.2844
        50.2504         39.0004
 04  6 29 22  1  9.9990000  0  5G11G14G16G20G25
  21845442.7534    -479033.34049   -370799.62547                  21845441.7414
        49.5004         33.2504
  23852190.8784     -44515.88749    -38776.87146                  23852189.8744
        42.0004         22.7504
  23173290.4644   -2585179.88749  -1992869.69546                  23173289.5894
        43.7504         25.5004
  21595348.4564   -2440108.61349  -1876522.93047                  21595347.0584
        49.5004         34.7504
  20817398.2144    -366140.78949   -284428.84848                  20817396.7104
        50.7504         39.7504
 04  6 29 22  1 19.9990000  0  5G11G14G16G20G25
  21843846.7304    -487420.20349   -377334.86747                  21843845.3974
        49.0004         32.5004
  23852087.2304     -45056.89149    -39198.44946                  23852087.3044
        41.2504         25.0004
  23163175.5264   -2638333.48449  -2034288.07446                  23163174.2374
        43.0004         23.2504
  21585913.0814   -2489691.41449  -1915158.88347                  21585911.8784
        48.7504         35.2504
  20816215.6904    -372355.10249   -289271.18048                  20816214.0034
        50.5004         39.5004
 04  6 29 22  1 29.9990000  0  5G11G14G16G20G25
  21842263.0424    -495742.84049   -383820.05147                  21842261.7224
        49.0004         33.0004
  23851987.8864     -45578.76649    -39605.13346                  23851987.9804
        41.0004         24.0004
  23153066.8004   -2691456.78549  -2075682.83246                  23153065.7494
        43.2504         24.0004
  21576486.0504   -2539231.17249  -1953761.27747                  21576484.8124
        49.2504         35.7504
  20815043.8554    -378511.76649   -294068.59448                  20815042.5974
        50.5004         39.5004
 04  6 29 22  1 39.9990000  0  5G11G14G16G20G25
  21840690.9954    -504004.36349   -390257.61347                  21840689.6444
        49.0004         33.2504
  23851891.9564     -46084.70349    -39999.37546                  23851892.1794
        40.5004         22.7504
  23142962.6054   -2744552.70349  -2117056.25846                  23142961.8554
        43.7504         22.7504
  21567066.6204   -2588730.94149  -1992332.52047                  21567065.6514
        49.0004         35.7504
  20813882.6444    -384613.91849   -298823.51647                  20813881.0504
        50.5004         39.2504
 04  6 29 22  1 49.9990000  0  5G11G14G16G20G25
  21839130.4954    -512206.54749   -396648.94547                  21839128.8974
        48.7504         33.7504
  23851798.3704     -46576.42249    -40382.56246                  23851798.3154
        39.5004         22.5004
  23132863.8154   -2797623.01249  -2158409.69546                  23132862.4054
        43.2504         24.5004
  21557654.2224   -2638192.44149  -2030873.94147                  21557652.9834
        50.0004         35.0004
  20812731.5894    -390663.54749   -303537.52047                  20812730.4054
        50.5004         38.7504
 04  6 29 22  1 59.9990000  0  5G11G14G16G20G25
  21837580.5034    -520350.19149   -402994.64547                  21837579.6714
        50.0004         33.5004
  23851707.7694     -47054.59049    -40755.19146                  23851707.5344
        38.5004         22.5004
  23122769.1284   -2850668.23449  -2199743.59446                  23122768.5304
        43.5004         22.7504
  21548249.4644   -2687616.36349  -2069386.07847                  21548248.2614
        49.0004         34.5004
  20811590.2534    -396661.33649   -308211.12547                  20811588.9374
        50.0004         38.7504
 04  6 29 22  2  9.9990000  0  5G11G14G16G20G25
  21836042.3704    -528434.48849   -409294.11747                  21836040.8904
        49.2504         33.7504
  23851618.4724     -47518.40649    -41116.59846                  23851618.6714
        38.5004         21.7504
  23112680.0654   -2903687.36749  -2241057.16846                  23112679.9604
        42.5004         22.5004
  21538851.7224   -2737001.69949  -2107868.14847                  21538850.4374
        49.0004         34.7504
  20810458.7534    -402606.48449   -312843.71547                  20810457.6084
        50.2504         38.2504
 04  6 29 22  2 19.9990000  0  5G11G14G16G20G25
  21834514.4804    -536462.06249   -415549.38747                  21834513.1084
        49.7504         34.0004
  23851532.8084     -47970.22349    -41468.75046                  23851532.8084
        37.0004         20.5004
  23102595.5114   -2956682.83649  -2282352.31246                  23102595.0224
        43.5004         23.7504
  21529460.7844   -2786350.80149  -2146321.98847                  21529459.5894
        49.0004         35.5004
  20809337.0734    -408501.56649   -317437.28547                  20809336.0224
        50.5004         39.0004
 04  6 29 22  2 29.9990000  0  5G11G14G16G20G25
  21832998.2224    -544431.92249   -421759.68747                  21832997.2144
        49.7504         33.2504
  23851448.9484     -48409.07849    -41810.74646                  23851449.2964
        37.5004         20.0004
  23092515.3474   -3009653.43449  -2323628.06246                  23092514.7654
        43.7504         24.5004
  21520077.2144   -2835662.55949  -2184746.73847                  21520075.5114
        49.5004         35.5004
  20808224.8864    -414345.53549   -321991.04347                  20808223.4374
        50.5004         39.0004
 04  6 29 22  2 39.9990000  0  5G11G14G16G20G25
  21831492.4564    -552342.50049   -427923.78547                  21831491.2694
        49.0004         34.0004
  23851368.4334     -48833.24649    -42141.32046                  23851367.9094
        36.7504         20.0004
  23082440.1124   -3062597.27349  -2364882.97346                  23082439.9294
        43.7504         24.5004
  21510701.0424   -2884935.25049  -2223141.04347                  21510699.4994
        50.0004         35.5004
  20807123.1204    -420136.85949   -326503.77347                  20807121.8784
        51.0004         39.0004
 04  6 29 22  2 49.9990000  0  5G11G14G16G20G25
  21829998.7304    -560193.26649   -434041.27747                  21829997.2804
        49.5004         34.0004
  23851290.2304     -49242.19549    -42460.00446                  23851291.0304
        38.0004         20.5004
  23072370.4874   -3115513.84849  -2406116.63746                  23072370.1874
        44.0004         25.5004
  21501332.1674   -2934168.16049  -2261504.34047                  21501330.5694
        49.5004         35.2504
  20806031.2304    -425875.09849   -330975.13347                  20806029.9014
        50.5004         39.2504
 04  6 29 22  2 59.9990000  0  5G11G14G16G20G25
  21828516.7924    -567982.87149   -440111.10547                  21828514.9484
        50.0004         33.7504
  23851215.5264     -49634.50849    -42765.73046                  23851216.3394
        37.5004         21.5004
  23062307.0504   -3168401.48849  -2447327.73846                  23062306.4994
        44.0004         25.2504
  21491971.2694   -2983359.77349  -2299835.45747                  21491969.9094
        49.5004         34.5004
  20804949.6284    -431558.81249   -335404.00447                  20804948.2654
        50.2504         39.0004
 04  6 29 22  3  9.9990000  0  5G11G14G16G20G25
  21827045.7144    -575711.15249   -446133.16047                  21827044.5154
        49.5004         34.0004
  23851144.4804     -50009.64149    -43058.09046                  23851144.6984
        37.5004         21.7504
  23052248.4804   -3221259.67249  -2488515.89546                  23052247.8274
        44.5004         25.0004
  21482618.2844   -3032509.60949  -2338134.02347                  21482616.5114
        49.5004         35.2504
  20803878.7304    -437187.73849   -339790.18447                  20803876.8004
        51.2504         39.2504
 04  6 29 22  3 19.9990000  0  5G11G14G16G20G25
  21825586.9014    -583377.92649   -452107.28147                  21825585.5344
        49.2504         32.5004
  23851077.4174     -50367.55949    -43337.02746                  23851076.9054
        38.0004         21.2504
  23042195.6204   -3274088.18049  -2529680.89546                  23042194.0074
        44.2504         25.0004
  21473273.6594   -3081617.36749  -2376399.80147                  21473272.0654
        49.0004         34.7504
  20802818.0344    -442761.68049   -344133.52047                  20802816.4564
        51.2504         38.5004
 04  6 29 22  3 29.9990000  0  5G11G14G16G20G25
  21824139.3704    -590984.18749   -458034.26247                  21824137.9724
        48.5004         33.7504
  23851012.2844     -50709.28949    -43603.32846                  23851011.5224
        39.2504         21.0004
  23032148.2694   -3326887.90649  -2570823.55547                  23032146.5654
        44.0004         26.0004
  21463936.1284   -3130684.06649  -2414633.58247                  21463934.7844
        49.2504         35.0004
  20801767.3784    -448281.84449   -348434.96148                  20801766.0304
        51.0004         39.5004
 04  6 29 22  3 39.9990000  0  5G11G14G16G20G25
  21822703.6284    -598531.08249   -463914.98047                  21822702.0894
        49.0004         32.7504
  23850950.0814     -51035.82849    -43857.80146                  23850949.2764
        39.0004         21.2504
  23022105.7304   -3379659.67649  -2611944.38746                  23022104.9094
        43.7504         25.0004
  21454606.8554   -3179710.52749  -2452836.02047                  21454605.2534
        49.5004         34.7504
  20800726.7374    -453749.31649   -352695.33647                  20800725.6204
        50.7504         39.2504
 04  6 29 22  3 49.9990000  0  5G11G14G16G20G25
  21821278.1834    -606020.52749   -469750.92647                  21821277.0654
        48.7504         34.0004
  23850890.3864     -51348.98049    -44101.87546                  23850889.8004
        40.0004         22.5004
  23012068.2764   -3432405.29749  -2653044.83247                  23012067.6124
        43.5004         26.0004
  21445284.7534   -3228698.55549  -2491008.50847                  21445283.0224
        49.2504         35.5004
  20799696.1984    -459166.03949   -356916.16848                  20799694.4874
        50.5004         40.0004
 04  6 29 22  3 59.9990000  0  5G11G14G16G20G25
  21819863.8944    -613453.17249   -475542.61347                  21819862.7024
        49.0004         33.2504
  23850833.4094     -51649.29349    -44335.87946                  23850833.0194
        39.5004         21.7504
  23002036.3474   -3485125.17249  -2694125.21147                  23002034.7724
        43.5004         26.5004
  21435969.9334   -3277648.58649  -2529151.37147                  21435967.8664
        48.7504         35.2504
  20798674.8314    -464532.53149   -361097.85548                  20798673.4834
        50.2504         39.7504
 04  6 29 22  4  9.9990000  0  5G11G14G16G20G25
  21818460.2764    -620829.75049   -481290.59447                  21818458.7334
        49.2504         33.0004
  23850778.3474     -51937.32849    -44560.34046                  23850777.8624
        40.2504         21.7504
  22992008.8084   -3537819.83649  -2735185.94547                  22992007.6474
        43.5004         26.5004
  21426662.2764   -3326561.21549  -2567265.10247                  21426660.5344
        49.7504         34.5004
  20797663.2064    -469849.62549   -365241.04747                  20797661.8194
        50.0004         39.0004
 04  6 29 22  4 19.9990000  0  5G11G14G16G20G25
  21817066.6204    -628153.82849   -486997.68447                  21817065.3944
        49.0004         33.7504
  23850725.0974     -52216.68749    -44778.04346                  23850724.4484
        40.2504         22.0004
  22981985.4094   -3590492.70349  -2776229.69547                  22981984.7724
        42.7504         27.0004
  21417360.8624   -3375439.92249  -2605352.39547                  21417358.8274
        49.2504         34.5004
  20796659.8394    -475120.82849   -369348.48447                  20796658.7184
        50.0004         39.0004
 04  6 29 22  4 29.9990000  0  5G11G14G16G20G25
  21815682.4874    -635427.92649   -492665.81247                  21815681.4294
        49.5004         33.0004
  23850673.5814     -52489.77349    -44990.87946                  23850673.0974
        40.5004         21.5004
  22971965.9174   -3643146.05949  -2817258.26247                  22971965.3314
        43.5004         26.0004
  21408065.2374   -3424286.99249  -2643415.04347                  21408063.6904
        49.5004         34.5004
  20795665.1594    -480348.63749   -373422.10947                  20795663.6874
        50.0004         39.0004
 04  6 29 22  4 39.9990000  0  5G11G14G16G20G25
  21814307.8154    -642650.07449   -498293.48847                  21814307.0974
        49.0004         34.0004
  23850623.5424     -52754.47749    -45197.13346                  23850622.3584
        41.5004         22.7504
  22961949.5814   -3695777.74649  -2858269.92247                  22961949.8624
        43.0004         26.0004
  21398776.5584   -3473100.28149  -2681451.36747                  21398774.7534
        49.2504         35.0004
  20794679.0734    -485531.16449   -377460.44547                  20794677.5074
        50.5004         39.2504
 04  6 29 22  4 49.9990000  0  5G11G14G16G20G25
  21812942.7304    -649823.79349   -503883.40647                  21812942.0304
        50.0004         33.5004
  23850573.7374     -53014.21949    -45399.56246                  23850573.1474
        42.0004         22.0004
  22951937.9724   -3748391.09049  -2899267.29747                  22951937.3974
        42.5004         26.0004
  21389493.4804   -3521883.08649  -2719463.93447                  21389491.8864
        49.2504         34.2504
  20793700.9484    -490671.82049   -381466.16047                  20793699.6474
        50.5004         39.0004
 04  6 29 22  4 59.9990000  0  5G11G14G16G20G25
  21811586.7534    -656949.52749   -509435.94947                  21811585.9134
        49.2504         34.0004
  23850525.4404     -53269.53949    -45598.53146                  23850524.8354
        41.2504         22.0004
  22941929.0504   -3800986.33249  -2940250.57047                  22941929.1674
        42.0004         27.5004
  21380216.0264   -3570635.75049  -2757453.02347                  21380214.1874
        49.5004         35.0004
  20792730.4954    -495771.05949   -385439.60948                  20792728.8974
        51.0004         40.0004
 04  6 29 22  5  9.9990000  0  5G11G14G16G20G25
  21810240.1834    -664027.10549   -514950.95347                  21810239.1594
        49.2504         34.0004
  23850477.6754     -53520.00449    -45793.72346                  23850477.0654
        42.0004         22.2504
  22931924.9334   -3853563.02049  -2981219.38747                  22931923.6444
        41.2504         27.5004
  21370944.5034   -3619357.92249  -2795418.35247                  21370943.0344
        49.2504         34.7504
  20791768.0344    -500828.73849   -389380.66048                  20791766.5854
        50.5004         39.7504
 04  6 29 22  5 19.9990000  0  5G11G14G16G20G25
  21808901.7764    -671058.87549   -520430.25847                  21808900.8084
        49.0004         33.7504
  23850430.8234     -53767.89849    -45986.90246                  23850429.4374
        42.0004         22.0004
  22921922.6124   -3906123.32049  -3022175.42647                  22921922.1324
        42.7504         27.0004
  21361678.4404   -3668051.75049  -2833361.57847                  21361676.9214
        49.2504         34.5004
  20790813.0814    -505847.22749   -393291.17647                  20790811.6874
        51.0004         38.5004
 04  6 29 22  5 29.9990000  0  5G11G14G16G20G25
  21807572.4804    -678045.26649   -525874.21547                  21807571.5854
        49.5004         33.0004
  23850383.7374     -54013.65649    -46178.41446                  23850382.9954
        42.5004         22.7504
  22911923.7694   -3958667.64149  -3063119.00847                  22911923.0194
        43.0004         27.0004
  21352417.4954   -3716717.53149  -2871282.96147                  21352416.3584
        49.2504         34.7504
  20789865.3704    -510827.03149   -397171.54747                  20789863.7614
        51.0004         39.0004
 04  6 29 22  5 39.9990000  0  5G11G14G16G20G25
  21806252.0114    -684985.85949   -531282.48047                  21806251.1514
        48.2504         32.5004
  23850337.8154     -54256.65649    -46367.76646                  23850336.7924
        42.7504         22.0004
  22901927.7064   -4011195.18749  -3104049.52746                  22901927.3584
        42.2504         25.5004
  21343162.0894   -3765354.55149  -2909181.92647                  21343160.8394
        49.2504         34.5004
  20788925.1594    -515767.56249   -401021.30947                  20788923.7764
        50.2504         38.5004
 04  6 29 22  5 49.9990000  0  5G11G14G16G20G25
  21804939.5264    -691882.36749   -536656.39847                  21804938.6204
        49.5004         33.5004
  23850291.3624     -54498.53149    -46556.27046                  23850290.6444
        42.7504         22.5004
  22891935.3234   -4063707.44149  -3144968.13347                  22891935.1124
        41.0004         26.2504
  21333912.1284   -3813964.37949  -2947059.71547                  21333910.4994
        48.5004         35.0004
  20787992.1514    -520670.50849   -404841.80148                  20787990.7104
        51.0004         39.5004
 04  6 29 22  5 59.9990000  0  5G11G14G16G20G25
  21803635.4484    -698736.06649   -541996.96147                  21803634.2724
        49.2504         34.0004
  23850245.3784     -54740.47349    -46744.80546                  23850244.7184
        42.7504         21.7504
  22881945.1514   -4116205.60549  -3185875.76247                  22881945.3044
        42.7504         25.7504
  21324667.2694   -3862548.22749  -2984917.25847                  21324665.6324
        49.5004         34.7504
  20787066.0194    -525537.22749   -408634.05147                  20787064.6554
        50.7504         38.5004
 04  6 29 22  6  9.9990000  0  5G11G14G16G20G25
  21802339.7764    -705544.88749   -547302.55147                  21802338.6984
        49.5004         34.0004
  23850199.6444     -54980.27749    -46931.69946                  23850198.6204
        42.7504         22.0004
  22871957.7694   -4168687.30949  -3226770.58247                  22871957.5694
        43.0004         27.2504
  21315427.2144   -3911103.79349  -3022752.76647                  21315425.8974
        49.0004         36.0004
  20786147.5034    -530365.55549   -412396.40647                  20786146.0624
        50.5004         39.2504
 04  6 29 22  6 19.9990000  0  5G11G14G16G20G25
  21801052.2304    -712309.03949   -552573.32847                  21801051.5654
        49.5004         34.0004
  23850154.8784     -55218.26249    -47117.15646                  23850153.4954
        42.7504         21.7504
  22861974.3154   -4221152.70749  -3267652.67246                  22861973.7264
        42.0004         25.5004
  21306192.8004   -3959631.23849  -3060566.34447                  21306191.3354
        49.7504         36.0004
  20785235.8784    -535155.84849   -416129.10548                  20785234.4254
        50.5004         40.0004
 04  6 29 22  6 29.9990000  0  5G11G14G16G20G25
  21799773.2614    -719029.58249   -557810.12947                  21799772.3664
        49.2504         32.7504
  23850109.6754     -55455.29349    -47301.82446                  23850107.9874
        42.7504         20.5004
  22851992.9094   -4273602.57849  -3308522.67247                  22851992.4254
        43.0004         26.7504
  21296963.3234   -4008131.35949  -3098358.64547                  21296961.6634
        49.5004         35.5004
  20784331.3004    -539909.01249   -419832.86748                  20784329.8864
        50.2504         39.5004
 04  6 29 22  6 39.9990000  0  5G11G14G16G20G25
  21798502.8624    -725705.79349   -563012.38747                  21798502.1014
        49.5004         33.2504
  23850064.6124     -55690.48049    -47485.11346                  23850063.2844
        43.2504         20.2504
  22842015.3474   -4326035.96549  -3349379.81647                  22842015.3394
        42.0004         26.0004
  21287739.4874   -4056603.21949  -3136128.91847                  21287737.9444
        49.2504         35.5004
  20783434.4094    -544624.39549   -423507.19947                  20783432.9334
        50.2504         39.0004
 04  6 29 22  6 49.9990000  0  5G11G14G16G20G25
  21797240.5034    -732340.07449   -568181.95747                  21797239.7964
        48.7504         33.0004
  23850019.7844     -55926.18449    -47668.78946                  23850017.9564
        43.0004         20.0004
  22832040.4094   -4378455.02749  -3390225.81246                  22832040.3474
        41.0004         25.5004
  21278520.6364   -4105049.00049  -3173878.86747                  21278518.9604
        49.5004         35.0004
  20782543.5654    -549304.37549   -427153.93447                  20782541.8314
        50.2504         38.2504
 04  6 29 22  6 59.9990000  0  5G11G14G16G20G25
  21795986.3314    -738930.98849   -573317.75847                  21795985.2764
        49.2504         34.0004
  23849975.1594     -56160.79349    -47851.57046                  23849973.8004
        42.7504         20.7504
  22822068.7694   -4430858.14849  -3431059.37547                  22822068.3944
        40.5004         26.5004
  21269307.0194   -4153467.07049  -3211607.23847                  21269305.6794
        50.0004         35.0004
  20781660.0114    -553947.51649   -430771.97747                  20781658.8474
        50.0004         39.0004
 04  6 29 22  7  9.9990000  0  5G11G14G16G20G25
  21794740.2614    -745478.09849   -578419.41047                  21794739.3314
        48.5004         33.5004
  23849931.0974     -56393.84049    -48033.20346                  23849929.7334
        43.0004         19.7504
  22812099.4954   -4483244.62949  -3471879.97747                  22812099.4134
        41.7504         26.2504
  21260098.3944   -4201856.91049  -3249313.59447                  21260096.8084
        49.5004         35.7504
  20780783.5194    -558553.41449   -434360.99247                  20780782.1284
        50.0004         39.2504
 04  6 29 22  7 19.9990000  0  5G11G14G16G20G25
  21793502.8944    -751981.94149   -583487.36747                  21793501.8434
        49.0004         34.0004
  23849886.4874     -56625.83249    -48214.00046                  23849885.0814
        42.7504         20.0004
  22802133.7614   -4535614.91049  -3512687.94947                  22802133.8704
        41.7504         26.5004
  21250895.7534   -4250218.88749  -3286998.25847                  21250894.2224
        49.5004         35.7504
  20779914.0814    -563122.53549   -437921.35948                  20779912.6594
        50.7504         40.0004
 04  6 29 22  7 29.9990000  0  5G11G14G16G20G25
  21792273.1834    -758442.71149   -588521.73847                  21792272.2104
        49.5004         33.7504
  23849842.6984     -56856.93749    -48394.08646                  23849841.2694
        42.2504         20.0004
  22792171.0814   -4587969.01249  -3553483.32047                  22792171.0654
        41.7504         26.5004
  21241698.0424   -4298553.08649  -3324661.26647                  21241696.8514
        49.2504         35.5004
  20779051.4334    -567655.12549   -441453.24648                  20779050.0224
        51.0004         39.5004
 04  6 29 22  7 39.9990000  0  5G11G14G16G20G25
  21791051.8154    -764859.63349   -593521.94947                  21791051.1984
        48.7504         33.5004
  23849798.9954     -57086.10549    -48572.66046                  23849797.6944
        42.5004         19.7504
  22782211.9254   -4640305.96949  -3594265.32847                  22782212.0624
        41.5004         26.5004
  21232505.7534   -4346858.42249  -3362301.77747                  21232504.2144
        49.5004         36.0004
  20778196.1204    -572150.31249   -444955.99248                  20778194.6834
        51.0004         39.5004
 04  6 29 22  7 49.9990000  0  5G11G14G16G20G25
  21789839.6124    -771232.31649   -598487.69547                  21789838.9954
        49.0004         33.7504
  23849756.1284     -57312.90649    -48749.39546                  23849754.0074
        43.0004         19.7504
  22772255.4874   -4692625.09849  -3635033.44147                  22772255.9374
        42.2504         26.2504
  21223319.4014   -4395134.41049  -3399919.41847                  21223317.4604
        50.0004         35.5004
  20777347.6904    -576607.78949   -448429.35248                  20777346.5344
        50.5004         39.5004
 04  6 29 22  7 59.9990000  0  5G11G14G16G20G25
  21788635.3554    -777562.78949   -603420.52747                  21788633.9294
        49.0004         32.5004
  23849713.2454     -57539.33249    -48925.84846                  23849711.4444
        42.0004         18.5004
  22762302.8554   -4744928.26649  -3675789.13746                  22762302.8124
        40.7504         25.2504
  21214137.7144   -4443382.89149  -3437515.62947                  21214136.1324
        49.0004         35.7504
  20776506.3474    -581029.55949   -451874.89147                  20776505.2844
        50.7504         38.7504
 04  6 29 22  8  9.9990000  0  5G11G14G16G20G25
  21787438.7454    -783849.93449   -608319.62147                  21787437.9174
        48.7504         33.2504
  23849670.1674     -57764.12549    -49101.00446                  23849669.1404
        42.2504         19.5004
  22752353.6674   -4797214.17649  -3716531.36747                  22752352.6404
        42.7504         26.5004
  21204961.8004   -4491602.53149  -3475089.37547                  21204960.4874
        50.2504         36.5004
  20775671.8084    -585414.49649   -455291.73047                  20775670.6204
        51.2504         39.0004
 04  6 29 22  8 19.9980000  0  5G11G14G16G20G25
  21786249.7874    -790093.55549   -613184.80547                  21786248.9554
        48.7504         33.0004
  23849627.4124     -57987.68049    -49275.23046                  23849626.7294
        41.0004         20.0004
  22742407.8264   -4849477.80549  -3757256.23847                  22742407.4164
        42.7504         26.0004
  21195792.2874   -4539788.85249  -3512637.15647                  21195790.6394
        49.7504         36.0004
  20774844.7254    -589762.66049   -458679.91447                  20774843.2134
        51.7504         38.5004
 04  6 29 22  8 29.9980000  0  5G11G14G16G20G25
  21785070.1234    -796294.68449   -618016.87547                  21785069.9594
        48.7504         33.7504
  23849585.2174     -58209.68049    -49448.23846                  23849584.7404
        41.5004         21.5004
  22732464.6624   -4901729.20349  -3797971.59447                  22732464.0684
        42.7504         27.2504
  21186627.3344   -4587951.10549  -3550166.18747                  21186625.9904
        50.0004         36.5004
  20774024.0454    -594074.64849   -462039.92247                  20774022.7324
        51.2504         39.2504
 04  6 29 22  8 39.9980000  0  5G11G14G16G20G25
  21783898.6154    -802451.90249   -622814.72747                  21783897.9514
        49.0004         34.0004
  23849543.6004     -58429.20349    -49619.34046                  23849543.4434
        40.7504         21.0004
  22722524.8654   -4953962.14849  -3838672.56647                  22722524.5534
        44.0004         27.0004
  21177467.9434   -4636083.46549  -3587671.91047                  21177466.4284
        50.0004         36.0004
  20773210.5684    -598349.11749   -465370.67647                  20773209.0454
        51.0004         39.0004
 04  6 29 22  8 49.9980000  0  5G11G14G16G20G25
  21782735.1314    -808565.84449   -627578.85247                  21782734.8304
        48.2504         33.0004
  23849501.7094     -58646.73849    -49788.93046                  23849501.7914
        40.5004         20.2504
  22712588.8344   -5006177.03949  -3879359.44547                  22712588.3934
        43.0004         26.0004
  21168314.2094   -4684186.38749  -3625154.70347                  21168312.7174
        49.7504         36.0004
  20772404.1624    -602586.83649   -468672.79347                  20772402.7254
        51.0004         38.5004
 04  6 29 22  8 59.9980000  0  5G11G14G16G20G25
  21781579.8974    -814636.61749   -632309.33247                  21781579.1194
        48.5004         33.7504
  23849460.9754     -58862.39549    -49956.93446                  23849460.3774
        40.7504         20.0004
  22702656.3184   -5058373.82449  -3920032.25047                  22702655.1354
        43.5004         27.2504
  21159166.2094   -4732259.73849  -3662614.45347                  21159164.3894
        50.0004         36.2504
  20771604.8504    -606787.84049   -471946.30947                  20771603.5224
        51.0004         38.7504
 04  6 29 22  9  9.9980000  0  5G11G14G16G20G25
  21780433.0924    -820664.34049   -637006.27747                  21780432.4634
        48.2504         32.5004
  23849420.8184     -59076.18749    -50123.54346                  23849419.5644
        40.0004         20.2504
  22692726.8974   -5110552.32849  -3960690.79347                  22692725.5614
        43.2504         25.7504
  21150023.9594   -4780303.54349  -3700051.17247                  21150022.0534
        49.5004         35.5004
  20770812.2564    -610952.13749   -475191.21547                  20770810.7644
        50.5004         38.2504
 04  6 29 22  9 19.9980000  0  5G11G14G16G20G25
  21779294.2254    -826649.54749   -641670.09847                  21779293.1004
        48.7504         32.2504
  23849379.5454     -59288.54349    -50289.03546                  23849378.6394
        40.0004         19.7504
  22682801.1704   -5162712.98849  -4001335.45747                  22682799.7174
        43.2504         27.0004
  21140886.8504   -4828318.17649  -3737465.16847                  21140885.1154
        50.0004         36.0004
  20770026.9284    -615080.38349   -478408.04747                  20770025.1664
        50.7504         39.2504
 04  6 29 22  9 29.9980000  0  5G11G14G16G20G25
  21778163.0534    -832592.66049   -646301.10947                  21778162.2254
        48.7504         32.2504
  23849339.4904     -59499.74249    -50453.64546                  23849339.1274
        40.5004         20.2504
  22672878.8114   -5214855.92649  -4041966.28947                  22672877.3654
        42.2504         26.2504
  21131755.5454   -4876303.80949  -3774856.56247                  21131754.0644
        50.0004         35.5004
  20769248.1624    -619172.88749   -481597.01247                  20769246.2954
        51.0004         38.5004
